Weather in Chur

Russia / Udmurt Republic     57°06′54″N   52°58′02″E
temp.,
°C
wind,
m/s
gust,
m/s
humid.,
%
clouds,
%
prec.,
mm/h
press.,
hPa
HPBL,
m
25 may, wed
wed2501:00+3ene1192100 0.0 100711
04:00+3nne119267 0.0 100710
07:00+8wnw2377100 0.0 1006263
10:00+12w2255100 0.0 10061096
13:00+15ssw2448100 0.1 10051998
16:00+9wnw3376100 0.4 1007696
19:00+5w2693100 0.6 1008682
22:00+3wsw23965 0.7 100954
26 may, thu
thu2601:00+2sw269592 0.0 1010128
04:00+1sw399892 0.0 1011289
07:00+3wsw4894100 0.0 1012828
10:00+8wsw466697 0.1 10131264
13:00+9sw3658100 0.0 10141330
16:00+10ssw365990 0.1 10131279
19:00+9ssw387494 0.7 1013672
22:00+5s29915 0.7 1012188
27 may, fri
fri2701:00+4s249414 0.0 101284
04:00+5s268910 0.0 1011203
07:00+8s3681100 0.0 1010300
10:00+13s51063100 0.0 10091273
13:00+11sse41079100 0.4 1009927
16:00+11sse61281100 0.9 10081246
19:00+12sse61277100 0.0 10061002
22:00+11sse5149227 0.1 1006664
28 may, sat
sat2801:00+10sse4129781 0.1 1006526
04:00+10s41095100 0.1 1007579
07:00+10s4991100 0.0 1009526
10:00+12ssw468295 0.1 1010767
13:00+15ssw4766100 0.1 10111222
16:00+17ssw685732 0.1 10111438
19:00+17s511685 0.0 10111195
22:00+15s51374100 0.0 1011859
29 may, sun
sun2901:00+13ssw3995100 1.0 1012439
04:00+12ssw3997100 1.4 1014492
07:00+13sw3691100 0.0 1016513
10:00+17sw3660100 0.0 10171159
13:00+19ssw464987 0.0 10161712
16:00+13w4983100 0.3 1017449
19:00+12wsw21091100 0.3 1018546
22:00+11sw2796100 0.3 1019235